Location: Iroquois Falls
(48.7680°N, 80.6732°W)
Time: 00:35:18
(UTC-05:00)

BlueWalker 3 - Visible Passes

Search period start: 16 November 2025 00:00
Search period end: 26 November 2025 00:00
Orbit: 456 x 463 km, 53.2° (Epoch: 15 November)

Date Brightness Start Highest point End Pass type
(mag) Time Alt. Az. Time Alt. Az. Time Alt. Az.
18 Nov 4.5 19:30:21 10° SW 19:30:57 14° SW 19:30:57 14° SW visible
19 Nov 3.2 18:55:59 10° SSW 18:58:07 29° S 18:58:07 29° S visible
20 Nov 2.6 18:21:38 10° SSW 18:24:55 32° SE 18:25:11 32° SE visible
20 Nov 5.1 19:58:43 10° WSW 19:59:00 12° WSW 19:59:00 12° WSW visible
21 Nov 3.1 17:47:22 10° SSW 17:50:27 27° SE 17:52:11 18° E visible
21 Nov 3.8 19:24:08 10° WSW 19:25:59 28° WSW 19:25:59 28° WSW visible
22 Nov 3.4 17:13:08 10° S 17:15:59 22° SE 17:18:50 10° E visible
22 Nov 1.9 18:49:34 10° WSW 18:52:54 73° W 18:52:54 73° W visible
23 Nov 1.7 18:15:01 10° WSW 18:18:38 84° SSE 18:19:46 42° ENE visible
23 Nov 4.9 19:52:58 10° W 19:53:33 14° WNW 19:53:33 14° WNW visible
24 Nov 1.8 17:40:28 10° SW 17:44:04 71° SSE 17:46:34 19° ENE visible
24 Nov 3.7 19:18:18 10° W 19:20:21 28° WNW 19:20:21 28° WNW visible
25 Nov 2.1 17:05:57 10° SW 17:09:31 59° SSE 17:13:05 10° ENE visible
25 Nov 2.4 18:43:39 10° W 18:47:07 46° NNW 18:47:07 46° NNW visible
